| time (UTC) | temp F | wind direction | speed knots | gust knots | rain 1hr in | rain 24hr in | rain mn in | humidity % | barometer mb |
| 20260505140309 | 91 | 155 | 0.0 | 3.5 | 0.00 | 0.00 | 0.00 | 70 | 1018.2 |
| 20260505130306 | 87 | 152 | 0.0 | 3.5 | 0.00 | 0.00 | 0.00 | 78 | 1018.0 |
| 20260505130301 | 87 | 65 | 0.0 | 3.5 | 0.00 | 0.00 | 0.00 | 78 | 1018.1 |
| 20260505124759 | 87 | 115 | 0.0 | 1.7 | 0.00 | 0.00 | 0.00 | 79 | 1018.0 |
| 20260505124300 | 86 | 38 | 0.0 | 1.7 | 0.00 | 0.00 | 0.00 | 80 | 1018.1 |
| 20260505123759 | 86 | 56 | 0.0 | 3.5 | 0.00 | 0.00 | 0.00 | 80 | 1018.0 |
| 20260505123259 | 85 | 89 | 0.0 | 3.5 | 0.00 | 0.00 | 0.00 | 80 | 1018.0 |
| 20260505122802 | 85 | 122 | 0.0 | 1.7 | 0.00 | 0.00 | 0.00 | 81 | 1017.8 |
| 20260505122758 | 85 | 82 | 0.0 | 2.6 | 0.00 | 0.00 | 0.00 | 80 | 1018.0 |
| 20260505121814 | 84 | 119 | 0.0 | 1.7 | 0.00 | 0.00 | 0.00 | 83 | 1017.8 |
| 20260505121807 | 85 | 72 | 0.0 | 1.7 | 0.00 | 0.00 | 0.00 | 82 | 1017.8 |
| 20260505120803 | 83 | 345 | 0.0 | 1.7 | 0.00 | 0.00 | 0.00 | 84 | 1017.9 |
| 20260505120757 | 83 | 40 | 0.0 | 1.7 | 0.00 | 0.00 | 0.00 | 83 | 1017.8 |
| 20260505115757 | 82 | 24 | 0.0 | 0.9 | 0.00 | 0.00 | 0.00 | 85 | 1017.7 |
| 20260505115257 | 81 | 17 | 0.0 | 0.9 | 0.00 | 0.00 | 0.00 | 88 | 1017.6 |
| 20260505114757 | 80 | 322 | 0.0 | 0.0 | 0.00 | 0.00 | 0.00 | 89 | 1017.6 |
| 20260505114256 | 79 | 46 | 0.0 | 0.0 | 0.00 | 0.00 | 0.00 | 91 | 1017.5 |
| 20260505113755 | 78 | 60 | 0.0 | 0.0 | 0.00 | 0.00 | 0.00 | 91 | 1017.5 |
| 20260505113254 | 78 | 89 | 0.0 | 0.0 | 0.00 | 0.00 | 0.00 | 92 | 1017.5 |
| 20260505112755 | 77 | 57 | 0.0 | 0.0 | 0.00 | 0.00 | 0.00 | 92 | 1017.5 |
| 20260505112255 | 77 | 62 | 0.0 | 0.0 | 0.00 | 0.00 | 0.00 | 93 | 1017.5 |
| 20260505111756 | 77 | 98 | 0.0 | 0.0 | 0.00 | 0.00 | 0.00 | 93 | 1017.6 |
| 20260505111255 | 76 | 98 | 0.0 | 0.0 | 0.00 | 0.00 | 0.00 | 93 | 1017.5 |
| 20260505110800 | 74 | 98 | 0.0 | 0.0 | 0.00 | 0.00 | 0.00 | 93 | 1017.4 |
| 20260505110755 | 75 | 98 | 0.0 | 0.0 | 0.00 | 0.00 | 0.00 | 93 | 1017.6 |
| 20260505101254 | 71 | 98 | 0.0 | 0.0 | 0.00 | 0.00 | 0.00 | 92 | 1016.9 |
| 20260505100753 | 71 | 98 | 0.0 | 0.0 | 0.00 | 0.00 | 0.00 | 92 | 1016.9 |
| 20260505100254 | 71 | 98 | 0.0 | 0.0 | 0.00 | 0.00 | 0.00 | 92 | 1016.9 |
| 20260505095752 | 71 | 98 | 0.0 | 0.0 | 0.00 | 0.00 | 0.00 | 92 | 1016.8 |
| 20260505095251 | 71 | 98 | 0.0 | 0.0 | 0.00 | 0.00 | 0.00 | 92 | 1016.7 |
| 20260505094750 | 71 | 98 | 0.0 | 0.0 | 0.00 | 0.00 | 0.00 | 92 | 1016.7 |
| 20260505094252 | 71 | 98 | 0.0 | 0.0 | 0.00 | 0.00 | 0.00 | 92 | 1016.5 |
| 20260505093752 | 71 | 98 | 0.0 | 0.0 | 0.00 | 0.00 | 0.00 | 92 | 1016.5 |
| 20260505093251 | 71 | 98 | 0.0 | 0.0 | 0.00 | 0.00 | 0.00 | 92 | 1016.6 |
| 20260505092750 | 72 | 98 | 0.0 | 0.0 | 0.00 | 0.00 | 0.00 | 92 | 1016.5 |
| 20260505092251 | 72 | 98 | 0.0 | 0.0 | 0.00 | 0.00 | 0.00 | 92 | 1016.5 |
| 20260505091752 | 72 | 98 | 0.0 | 0.0 | 0.00 | 0.00 | 0.00 | 92 | 1016.6 |
| 20260505091252 | 72 | 98 | 0.0 | 0.0 | 0.00 | 0.00 | 0.00 | 92 | 1016.6 |
| 20260505090754 | 72 | 98 | 0.0 | 0.0 | 0.00 | 0.00 | 0.00 | 92 | 1016.6 |
| 20260505090748 | 72 | 98 | 0.0 | 0.0 | 0.00 | 0.00 | 0.00 | 92 | 1016.5 |
| 20260505085748 | 72 | 98 | 0.0 | 0.0 | 0.00 | 0.00 | 0.00 | 92 | 1016.5 |
| 20260505085255 | 72 | 98 | 0.0 | 0.0 | 0.00 | 0.00 | 0.00 | 92 | 1016.3 |
| 20260505085249 | 72 | 98 | 0.0 | 0.0 | 0.00 | 0.00 | 0.00 | 92 | 1016.4 |
| 20260505084749 | 72 | 98 | 0.0 | 0.0 | 0.00 | 0.00 | 0.00 | 92 | 1016.3 |
| 20260505083749 | 72 | 98 | 0.0 | 0.0 | 0.00 | 0.00 | 0.00 | 92 | 1016.2 |
| 20260505083249 | 72 | 98 | 0.0 | 0.0 | 0.00 | 0.00 | 0.00 | 92 | 1016.3 |
| 20260505082750 | 72 | 98 | 0.0 | 0.0 | 0.00 | 0.00 | 0.00 | 92 | 1016.4 |
| 20260505082250 | 72 | 98 | 0.0 | 0.0 | 0.00 | 0.00 | 0.00 | 92 | 1016.4 |
| 20260505081750 | 72 | 98 | 0.0 | 0.0 | 0.00 | 0.00 | 0.00 | 92 | 1016.3 |
| 20260505081250 | 73 | 98 | 0.0 | 0.0 | 0.00 | 0.00 | 0.00 | 92 | 1016.4 |
| 20260505080748 | 73 | 98 | 0.0 | 0.0 | 0.00 | 0.00 | 0.00 | 92 | 1016.5 |
| 20260505080256 | 72 | 98 | 0.0 | 0.0 | 0.00 | 0.00 | 0.00 | 92 | 1016.5 |
| 20260505080248 | 73 | 98 | 0.0 | 0.0 | 0.00 | 0.00 | 0.00 | 92 | 1016.4 |
| 20260505075908 | 73 | 98 | 0.0 | 0.0 | 0.00 | 0.00 | 0.00 | 92 | 1016.4 |
| 20260505075746 | 73 | 98 | 0.0 | 0.0 | 0.00 | 0.00 | 0.00 | 92 | 1016.4 |
| 20260505075246 | 73 | 98 | 0.0 | 0.0 | 0.00 | 0.00 | 0.00 | 92 | 1016.5 |
| 20260505073744 | 73 | 98 | 0.0 | 0.0 | 0.00 | 0.00 | 0.00 | 92 | 1016.2 |
| 20260505073243 | 73 | 98 | 0.0 | 0.0 | 0.00 | 0.00 | 0.00 | 92 | 1016.3 |
| 20260505072744 | 73 | 98 | 0.0 | 0.0 | 0.00 | 0.00 | 0.00 | 91 | 1016.3 |
| 20260505072243 | 73 | 98 | 0.0 | 0.0 | 0.00 | 0.00 | 0.00 | 91 | 1016.2 |
| 20260505071743 | 73 | 98 | 0.0 | 0.0 | 0.00 | 0.00 | 0.00 | 91 | 1016.2 |
| 20260505071242 | 73 | 98 | 0.0 | 0.0 | 0.00 | 0.00 | 0.00 | 91 | 1016.3 |
| 20260505070752 | 73 | 98 | 0.0 | 0.0 | 0.00 | 0.00 | 0.00 | 91 | 1016.3 |
| 20260505070243 | 73 | 98 | 0.0 | 0.0 | 0.00 | 0.00 | 0.00 | 91 | 1016.2 |
| 20260505065746 | 73 | 98 | 0.0 | 0.0 | 0.00 | 0.00 | 0.00 | 91 | 1016.3 |
| 20260505065742 | 73 | 98 | 0.0 | 0.0 | 0.00 | 0.00 | 0.00 | 91 | 1016.3 |
| 20260505065358 | 73 | 98 | 0.0 | 0.0 | 0.00 | 0.00 | 0.00 | 91 | 1016.3 |
| 20260505064858 | 73 | 98 | 0.0 | 0.0 | 0.00 | 0.00 | 0.00 | 91 | 1016.4 |
| 20260505064853 | 73 | 98 | 0.0 | 0.0 | 0.00 | 0.00 | 0.00 | 91 | 1016.4 |
| 20260505063236 | 73 | 98 | 0.0 | 0.0 | 0.00 | 0.00 | 0.00 | 91 | 1016.4 |
| 20260505062736 | 73 | 97 | 0.0 | 0.0 | 0.00 | 0.00 | 0.00 | 91 | 1016.5 |
| 20260505062237 | 73 | 98 | 0.0 | 0.0 | 0.00 | 0.00 | 0.00 | 91 | 1016.6 |
| 20260505061734 | 73 | 98 | 0.0 | 0.0 | 0.00 | 0.00 | 0.00 | 91 | 1016.6 |
| 20260505061235 | 73 | 98 | 0.0 | 0.0 | 0.00 | 0.00 | 0.00 | 91 | 1016.5 |
| 20260505060736 | 73 | 98 | 0.0 | 0.0 | 0.00 | 0.00 | 0.00 | 91 | 1016.7 |
| 20260505060234 | 73 | 98 | 0.0 | 0.0 | 0.00 | 0.00 | 0.00 | 91 | 1016.6 |
| 20260505055733 | 73 | 98 | 0.0 | 0.0 | 0.00 | 0.00 | 0.00 | 91 | 1016.7 |
| 20260505055231 | 73 | 98 | 0.0 | 0.0 | 0.00 | 0.00 | 0.00 | 91 | 1016.7 |
| 20260505054731 | 74 | 98 | 0.0 | 0.0 | 0.00 | 0.00 | 0.00 | 90 | 1016.8 |
| 20260505054230 | 74 | 98 | 0.0 | 0.0 | 0.00 | 0.00 | 0.00 | 90 | 1016.8 |
| 20260505053732 | 74 | 98 | 0.0 | 0.0 | 0.00 | 0.00 | 0.00 | 90 | 1016.8 |
| 20260505053230 | 74 | 98 | 0.0 | 0.0 | 0.00 | 0.00 | 0.00 | 90 | 1017.1 |
| 20260505052729 | 74 | 98 | 0.0 | 0.0 | 0.00 | 0.00 | 0.00 | 90 | 1017.1 |
| 20260505052233 | 74 | 98 | 0.0 | 0.0 | 0.00 | 0.00 | 0.00 | 90 | 1017.1 |
| 20260505052228 | 74 | 98 | 0.0 | 0.0 | 0.00 | 0.00 | 0.00 | 90 | 1017.0 |
| 20260505051839 | 74 | 98 | 0.0 | 0.0 | 0.00 | 0.00 | 0.00 | 90 | 1017.2 |
| 20260505051344 | 74 | 98 | 0.0 | 0.0 | 0.00 | 0.00 | 0.00 | 90 | 1017.2 |
| 20260505050226 | 74 | 98 | 0.0 | 0.0 | 0.00 | 0.00 | 0.00 | 90 | 1017.1 |
| 20260505041724 | 75 | 98 | 0.0 | 0.0 | 0.00 | 0.00 | 0.00 | 89 | 1017.6 |
| 20260505041224 | 75 | 98 | 0.0 | 0.0 | 0.00 | 0.00 | 0.00 | 89 | 1017.7 |
| 20260505040726 | 75 | 98 | 0.0 | 0.0 | 0.00 | 0.00 | 0.00 | 89 | 1017.7 |
| 20260505040722 | 75 | 98 | 0.0 | 0.0 | 0.00 | 0.00 | 0.00 | 89 | 1017.7 |
| 20260505035724 | 75 | 98 | 0.0 | 0.0 | 0.00 | 0.00 | 0.00 | 88 | 1017.7 |
| 20260505035222 | 76 | 98 | 0.0 | 0.0 | 0.00 | 0.00 | 0.00 | 88 | 1017.8 |
| 20260505034722 | 76 | 98 | 0.0 | 0.0 | 0.00 | 0.00 | 0.00 | 88 | 1017.8 |
| 20260505034222 | 76 | 98 | 0.0 | 0.0 | 0.00 | 0.00 | 0.00 | 88 | 1017.9 |
| 20260505033727 | 76 | 98 | 0.0 | 0.0 | 0.00 | 0.00 | 0.00 | 88 | 1018.0 |
| 20260505033722 | 76 | 98 | 0.0 | 0.0 | 0.00 | 0.00 | 0.00 | 88 | 1018.0 |
| 20260505033335 | 76 | 98 | 0.0 | 0.0 | 0.00 | 0.00 | 0.00 | 88 | 1018.1 |
| 20260505032223 | 76 | 98 | 0.0 | 0.0 | 0.00 | 0.00 | 0.00 | 88 | 1018.1 |
| 20260505031724 | 76 | 98 | 0.0 | 0.0 | 0.00 | 0.00 | 0.00 | 87 | 1018.1 |
| 20260505031222 | 76 | 98 | 0.0 | 0.0 | 0.00 | 0.00 | 0.00 | 87 | 1018.0 |
| 20260505030724 | 76 | 98 | 0.0 | 0.0 | 0.00 | 0.00 | 0.00 | 87 | 1018.0 |
| 20260505030720 | 76 | 98 | 0.0 | 0.0 | 0.00 | 0.00 | 0.00 | 87 | 1018.0 |
| 20260505025721 | 77 | 98 | 0.0 | 0.0 | 0.00 | 0.00 | 0.00 | 87 | 1018.1 |
| 20260505025225 | 77 | 98 | 0.0 | 0.0 | 0.00 | 0.00 | 0.00 | 87 | 1018.0 |
| 20260505025221 | 77 | 98 | 0.0 | 0.0 | 0.00 | 0.00 | 0.00 | 87 | 1018.0 |
| 20260505024225 | 77 | 98 | 0.0 | 0.0 | 0.00 | 0.00 | 0.00 | 87 | 1017.9 |
| 20260505024220 | 77 | 98 | 0.0 | 0.0 | 0.00 | 0.00 | 0.00 | 87 | 1018.0 |
| 20260505023219 | 77 | 98 | 0.0 | 0.0 | 0.00 | 0.00 | 0.00 | 87 | 1018.0 |
| 20260505022718 | 78 | 98 | 0.0 | 0.0 | 0.00 | 0.00 | 0.00 | 87 | 1018.0 |
| 20260505022218 | 78 | 98 | 0.0 | 0.0 | 0.00 | 0.00 | 0.00 | 86 | 1017.9 |
| 20260505021724 | 78 | 98 | 0.0 | 0.0 | 0.00 | 0.00 | 0.00 | 86 | 1017.7 |
| 20260505021719 | 78 | 97 | 0.0 | 0.0 | 0.00 | 0.00 | 0.00 | 86 | 1017.8 |
| 20260505020627 | 78 | 98 | 0.0 | 0.0 | 0.00 | 0.00 | 0.00 | 86 | 1017.7 |
| 20260505020132 | 78 | 98 | 0.0 | 0.0 | 0.00 | 0.00 | 0.00 | 86 | 1017.7 |
| 20260505020119 | 78 | 98 | 0.0 | 0.0 | 0.00 | 0.00 | 0.00 | 86 | 1017.7 |
| 20260505014756 | 78 | 98 | 0.0 | 0.0 | 0.00 | 0.00 | 0.00 | 86 | 1017.7 |
| 20260505014301 | 78 | 98 | 0.0 | 0.0 | 0.00 | 0.00 | 0.00 | 86 | 1017.6 |
| 20260505014255 | 78 | 98 | 0.0 | 0.0 | 0.00 | 0.00 | 0.00 | 86 | 1017.7 |
| 20260505013253 | 78 | 98 | 0.0 | 0.0 | 0.00 | 0.00 | 0.00 | 86 | 1017.5 |
| 20260505012754 | 78 | 98 | 0.0 | 0.0 | 0.00 | 0.00 | 0.00 | 85 | 1017.5 |
| 20260505012252 | 78 | 98 | 0.0 | 0.0 | 0.00 | 0.00 | 0.00 | 85 | 1017.5 |
| 20260505011752 | 78 | 98 | 0.0 | 0.0 | 0.00 | 0.00 | 0.00 | 85 | 1017.4 |
| 20260505011253 | 79 | 98 | 0.0 | 0.0 | 0.00 | 0.00 | 0.00 | 85 | 1017.3 |
| 20260505010757 | 79 | 98 | 0.0 | 0.0 | 0.00 | 0.00 | 0.00 | 84 | 1017.1 |
| 20260505010751 | 79 | 98 | 0.0 | 0.0 | 0.00 | 0.00 | 0.00 | 84 | 1017.3 |
| 20260505005408 | 79 | 98 | 0.0 | 0.0 | 0.00 | 0.00 | 0.00 | 84 | 1017.0 |
| 20260505004905 | 79 | 98 | 0.0 | 0.0 | 0.00 | 0.00 | 0.00 | 84 | 1017.0 |
| 20260505004413 | 80 | 98 | 0.0 | 0.0 | 0.00 | 0.00 | 0.00 | 84 | 1017.0 |
| 20260505003903 | 80 | 98 | 0.0 | 0.0 | 0.00 | 0.00 | 0.00 | 83 | 1017.0 |
| 20260505003420 | 80 | 98 | 0.0 | 0.0 | 0.00 | 0.00 | 0.00 | 83 | 1016.7 |
| 20260505002532 | 81 | 98 | 0.0 | 0.0 | 0.00 | 0.00 | 0.00 | 82 | 1016.6 |
| 20260505002036 | 81 | 98 | 0.0 | 0.0 | 0.00 | 0.00 | 0.00 | 82 | 1016.6 |
| 20260505001525 | 81 | 98 | 0.0 | 0.0 | 0.00 | 0.00 | 0.00 | 82 | 1016.7 |
| 20260505001032 | 81 | 98 | 0.0 | 0.0 | 0.00 | 0.00 | 0.00 | 82 | 1016.6 |
| 20260505000521 | 81 | 98 | 0.0 | 0.0 | 0.00 | 0.00 | 0.00 | 81 | 1016.6 |
| 20260505000032 | 81 | 98 | 0.0 | 0.0 | 0.00 | 0.00 | 0.00 | 81 | 1016.5 |
| 20260504235535 | 82 | 98 | 0.0 | 0.0 | 0.00 | 0.00 | 0.00 | 81 | 1016.4 |
| 20260504235522 | 82 | 98 | 0.0 | 0.0 | 0.00 | 0.00 | 0.00 | 81 | 1016.4 |
| 20260504234524 | 82 | 100 | 0.0 | 0.0 | 0.00 | 0.00 | 0.00 | 81 | 1016.4 |
| 20260504234032 | 82 | 100 | 0.0 | 0.0 | 0.00 | 0.00 | 0.00 | 80 | 1016.3 |
| 20260504233523 | 82 | 101 | 0.0 | 0.0 | 0.00 | 0.00 | 0.00 | 80 | 1016.4 |
| 20260504233031 | 82 | 101 | 0.0 | 0.0 | 0.00 | 0.00 | 0.00 | 80 | 1016.3 |
| 20260504232521 | 82 | 101 | 0.0 | 0.0 | 0.00 | 0.00 | 0.00 | 80 | 1016.3 |
| 20260504232028 | 83 | 101 | 0.0 | 0.0 | 0.00 | 0.00 | 0.00 | 80 | 1016.3 |
| 20260504231520 | 83 | 101 | 0.0 | 0.0 | 0.00 | 0.00 | 0.00 | 80 | 1016.2 |
| 20260504231031 | 83 | 114 | 0.0 | 0.0 | 0.00 | 0.00 | 0.00 | 79 | 1016.2 |
| 20260504230520 | 83 | 115 | 0.0 | 0.0 | 0.00 | 0.00 | 0.00 | 79 | 1016.1 |
| 20260504230024 | 83 | 115 | 0.0 | 0.0 | 0.00 | 0.00 | 0.00 | 79 | 1016.0 |
| 20260504225520 | 83 | 114 | 0.0 | 0.0 | 0.00 | 0.00 | 0.00 | 78 | 1015.9 |
| 20260504225023 | 84 | 114 | 0.0 | 0.0 | 0.00 | 0.00 | 0.00 | 78 | 1015.8 |
| 20260504224520 | 84 | 127 | 0.0 | 0.9 | 0.00 | 0.00 | 0.00 | 78 | 1015.8 |
| 20260504224036 | 85 | 132 | 0.0 | 0.9 | 0.00 | 0.00 | 0.00 | 76 | 1015.6 |
| 20260504224031 | 85 | 127 | 0.0 | 0.9 | 0.00 | 0.00 | 0.00 | 77 | 1015.8 |
| 20260504222954 | 86 | 46 | 0.0 | 0.9 | 0.00 | 0.00 | 0.00 | 76 | 1015.5 |
| 20260504222948 | 85 | 132 | 0.0 | 0.9 | 0.00 | 0.00 | 0.00 | 76 | 1015.6 |
| 20260504221949 | 86 | 113 | 0.0 | 0.9 | 0.00 | 0.00 | 0.00 | 76 | 1015.4 |
| 20260504221448 | 86 | 129 | 0.0 | 0.9 | 0.00 | 0.00 | 0.00 | 75 | 1015.4 |
| 20260504220949 | 86 | 103 | 0.0 | 0.9 | 0.00 | 0.00 | 0.00 | 76 | 1015.2 |
| 20260504220454 | 85 | 108 | 0.0 | 0.0 | 0.00 | 0.00 | 0.00 | 79 | 1015.1 |
| 20260504220448 | 86 | 104 | 0.0 | 0.0 | 0.00 | 0.00 | 0.00 | 77 | 1015.3 |
| 20260504215948 | 86 | 17 | 0.0 | 0.0 | 0.00 | 0.00 | 0.00 | 78 | 1015.2 |
| 20260504215607 | 85 | 109 | 0.0 | 0.0 | 0.00 | 0.00 | 0.00 | 80 | 1015.0 |
| 20260504214447 | 85 | 108 | 0.0 | 0.0 | 0.00 | 0.00 | 0.00 | 81 | 1014.9 |
| 20260504213949 | 85 | 108 | 0.0 | 0.9 | 0.00 | 0.00 | 0.00 | 80 | 1014.8 |
| 20260504213445 | 85 | 43 | 0.0 | 2.6 | 0.00 | 0.00 | 0.00 | 81 | 1014.9 |
| 20260504212953 | 85 | 76 | 0.0 | 4.3 | 0.00 | 0.00 | 0.00 | 81 | 1014.9 |
| 20260504212947 | 85 | 32 | 0.0 | 4.3 | 0.00 | 0.00 | 0.00 | 81 | 1014.9 |
| 20260504212604 | 85 | 138 | 0.0 | 4.3 | 0.00 | 0.00 | 0.00 | 81 | 1014.9 |
| 20260504212142 | 87 | 108 | 1.7 | 7.0 | 0.00 | 0.00 | 0.00 | 78 | 1014.4 |
| 20260504212105 | 85 | 188 | 0.9 | 4.3 | 0.00 | 0.00 | 0.00 | 81 | 1014.7 |
| 20260504211818 | 87 | 25 | 1.7 | 6.1 | 0.00 | 0.00 | 0.00 | 79 | 1014.6 |
| 20260504211635 | 87 | 122 | 1.7 | 6.1 | 0.00 | 0.00 | 0.00 | 79 | 1014.6 |
| 20260504211629 | 87 | 110 | 1.7 | 7.0 | 0.00 | 0.00 | 0.00 | 79 | 1014.6 |
| 20260504211623 | 86 | 86 | 0.9 | 7.8 | 0.00 | 0.00 | 0.00 | 80 | 1014.7 |
| 20260504211618 | 85 | 119 | 0.9 | 7.8 | 0.00 | 0.00 | 0.00 | 81 | 1014.7 |
| 20260504203517 | 87 | 94 | 1.7 | 7.0 | 0.00 | 0.00 | 0.00 | 80 | 1014.4 |
| 20260504203017 | 87 | 94 | 1.7 | 7.0 | 0.00 | 0.00 | 0.00 | 80 | 1014.4 |
| 20260504202518 | 87 | 114 | 0.9 | 5.2 | 0.00 | 0.00 | 0.00 | 79 | 1014.4 |
| 20260504202009 | 88 | 108 | 0.9 | 7.8 | 0.00 | 0.00 | 0.00 | 76 | 1014.4 |
| 20260504201511 | 89 | 39 | 0.9 | 7.8 | 0.00 | 0.00 | 0.00 | 76 | 1014.4 |
| 20260504201011 | 89 | 107 | 0.9 | 6.1 | 0.00 | 0.00 | 0.00 | 76 | 1014.3 |
| 20260504200511 | 89 | 77 | 0.9 | 6.1 | 0.00 | 0.00 | 0.00 | 77 | 1014.3 |
| 20260504200003 | 88 | 31 | 0.9 | 6.1 | 0.00 | 0.00 | 0.00 | 78 | 1014.4 |
| 20260504195506 | 88 | 105 | 1.7 | 6.1 | 0.00 | 0.00 | 0.00 | 77 | 1014.3 |
| 20260504195008 | 88 | 6 | 1.7 | 7.0 | 0.00 | 0.00 | 0.00 | 77 | 1014.3 |
| 20260504194508 | 88 | 82 | 1.7 | 7.8 | 0.00 | 0.00 | 0.00 | 78 | 1014.4 |
| 20260504194006 | 89 | 13 | 1.7 | 7.8 | 0.00 | 0.00 | 0.00 | 78 | 1014.5 |
| 20260504193504 | 89 | 161 | 0.9 | 7.8 | 0.00 | 0.00 | 0.00 | 76 | 1014.5 |
| 20260504193006 | 89 | 128 | 1.7 | 6.1 | 0.00 | 0.00 | 0.00 | 77 | 1014.5 |
| 20260504192501 | 89 | 71 | 1.7 | 7.8 | 0.00 | 0.00 | 0.00 | 77 | 1014.5 |
| 20260504192007 | 89 | 110 | 1.7 | 7.8 | 0.00 | 0.00 | 0.00 | 77 | 1014.5 |
| 20260504191511 | 89 | 41 | 1.7 | 7.8 | 0.00 | 0.00 | 0.00 | 77 | 1014.6 |
| 20260504191501 | 89 | 79 | 1.7 | 6.1 | 0.00 | 0.00 | 0.00 | 77 | 1014.6 |
| 20260504190505 | 89 | 94 | 1.7 | 7.8 | 0.00 | 0.00 | 0.00 | 77 | 1014.6 |
| 20260504190010 | 89 | 141 | 1.7 | 0.0 | 0.00 | 0.00 | 0.00 | 77 | 1014.6 |
| 20260504184816 | 88 | 81 | 1.7 | 7.0 | 0.00 | 0.00 | 0.00 | 77 | 1014.8 |
| 20260504184319 | 88 | 110 | 2.6 | 10.4 | 0.00 | 0.00 | 0.00 | 78 | 1014.9 |
| 20260504184314 | 88 | 99 | 1.7 | 7.8 | 0.00 | 0.00 | 0.00 | 77 | 1014.8 |
| 20260504183329 | 88 | 43 | 1.7 | 7.0 | 0.00 | 0.00 | 0.00 | 79 | 1015.1 |
| 20260504183314 | 88 | 120 | 2.6 | 11.3 | 0.00 | 0.00 | 0.00 | 78 | 1015.0 |
| 20260504182813 | 88 | 49 | 1.7 | 11.3 | 0.00 | 0.00 | 0.00 | 79 | 1015.0 |
| 20260504181813 | 88 | 124 | 1.7 | 7.0 | 0.00 | 0.00 | 0.00 | 78 | 1015.1 |
| 20260504181313 | 88 | 85 | 1.7 | 7.0 | 0.00 | 0.00 | 0.00 | 79 | 1015.3 |
| 20260504180824 | 89 | 87 | 2.6 | 8.7 | 0.00 | 0.00 | 0.00 | 77 | 1015.4 |
| 20260504180813 | 88 | 71 | 2.6 | 8.7 | 0.00 | 0.00 | 0.00 | 78 | 1015.4 |
| 20260504180411 | 89 | 99 | 2.6 | 7.8 | 0.00 | 0.00 | 0.00 | 76 | 1015.5 |
| 20260504175311 | 89 | 65 | 1.7 | 7.8 | 0.00 | 0.00 | 0.00 | 76 | 1015.6 |
| 20260504174817 | 90 | 60 | 1.7 | 8.7 | 0.00 | 0.00 | 0.00 | 75 | 1015.7 |
| 20260504174813 | 90 | 47 | 1.7 | 7.0 | 0.00 | 0.00 | 0.00 | 76 | 1015.6 |
| 20260504173810 | 90 | 88 | 1.7 | 8.7 | 0.00 | 0.00 | 0.00 | 76 | 1015.6 |
| 20260504173329 | 90 | 26 | 1.7 | 7.0 | 0.00 | 0.00 | 0.00 | 75 | 1015.7 |
| 20260504173311 | 89 | 20 | 1.7 | 8.7 | 0.00 | 0.00 | 0.00 | 76 | 1015.7 |
| 20260504172314 | 89 | 100 | 1.7 | 8.7 | 0.00 | 0.00 | 0.00 | 74 | 1015.8 |
| 20260504172309 | 90 | 53 | 0.9 | 7.8 | 0.00 | 0.00 | 0.00 | 76 | 1015.9 |
| 20260504171923 | 89 | 88 | 2.6 | 8.7 | 0.00 | 0.00 | 0.00 | 76 | 1016.0 |
| 20260504171424 | 90 | 58 | 1.7 | 7.0 | 0.00 | 0.00 | 0.00 | 74 | 1016.0 |
| 20260504170309 | 90 | 69 | 1.7 | 7.0 | 0.00 | 0.00 | 0.00 | 73 | 1016.0 |
| 20260504160325 | 93 | 91 | 0.9 | 7.0 | 0.00 | 0.00 | 0.00 | 60 | 1016.7 |
| 20260504160319 | 93 | 63 | 0.9 | 4.3 | 0.00 | 0.00 | 0.00 | 60 | 1016.8 |
| 20260504150259 | 91 | 29 | 0.0 | 2.6 | 0.00 | 0.00 | 0.00 | 70 | 1017.3 |